Theta_e
286 287 289 290 290 291 290 290 291 291 291 291 291 291 291 291 292 291 290 290 289 288 288 288 287 287 286 287 287 286 285 286 290 287 287 284 279 279 278 279 280 278 279
285 286 287 288 288 287 287 288 288 287 288 288 288 288 288 288 288 287 285 286 285 284 284 284 283 284 282 282 282 282 282 282 283 282 281 279 277 277 277 277 278 279 278
284 285 285 285 285 285 285 285 285 285 285 285 285 285 285 285 284 284 283 282 281 281 281 280 280 281 280 280 279 279 280 281 280 281 278 278 277 276 277 277 277 277 278
283 283 282 283 283 283 284 283 283 283 283 283 284 284 283 283 282 281 281 280 280 280 281 281 280 280 279 279 279 279 279 279 279 277 277 276 275 277 276 274 274 276 276
281 281 281 282 282 282 282 281 281 281 281 282 281 282 283 283 282 281 280 280 279 279 280 280 280 280 283 282 279 278 278 277 277 276 275 275 274 274 273 275 274 274 274
277 278 279 279 279 279 279 279 279 279 279 280 280 281 281 283 285 284 281 280 280 279 278 279 278 278 280 282 282 282 280 277 275 275 274 273 273 274 275 274 273 271 269
277 277 277 278 277 277 278 278 277 277 278 278 279 279 279 281 284 283 281 279 279 279 278 278 278 278 278 277 279 279 279 281 279 275 274 273 273 274 275 273 272 271 271
275 276 276 276 276 276 276 275 275 276 277 277 278 278 279 280 282 281 280 278 278 278 278 278 278 278 278 277 276 276 276 277 277 277 275 275 275 276 276 274 271 270 269
274 274 275 275 275 275 275 274 275 275 276 276 277 277 278 279 282 281 279 277 276 276 277 277 277 277 280 280 276 275 275 275 278 278 277 277 277 277 276 272 262 260 260
273 274 274 275 274 274 274 274 275 275 276 276 276 275 275 276 281 280 279 278 276 276 276 276 278 277 280 280 275 274 272 273 274 272 272 272 273 273 274 272 270 260 261
273 273 273 274 274 274 274 274 274 274 274 273 273 273 273 273 277 280 279 277 277 275 275 274 275 279 279 279 278 274 275 273 271 268 268 268 269 270 271 271 270 268 263
272 271 271 272 273 273 273 272 272 272 271 270 270 270 271 272 276 278 279 278 277 275 273 274 274 278 278 278 275 276 276 272 263 261 261 263 266 266 268 267 267 266 267
270 269 269 271 272 272 271 270 269 270 269 268 269 268 268 270 271 276 276 276 276 274 274 275 276 276 276 273 274 274 268 264 262 260 262 264 266 266 264 262 261 260 261
267 268 268 269 268 269 271 270 269 268 267 269 268 266 265 267 268 269 272 271 273 273 274 271 273 274 273 271 267 267 267 266 264 262 262 263 261 258 256 259 258 260 255
267 267 266 266 266 267 268 268 269 268 269 265 265 267 263 262 268 272 272 269 268 271 264 262 263 264 263 263 262 261 263 262 260 260 258 257 259 259 259 258 257 254 254
265 265 265 265 263 264 264 264 271 272 274 274 274 269 269 272 273 275 276 277 277 277 261 259 260 262 262 262 260 260 260 260 260 259 256 256 258 258 258 257 257 253 254
265 265 264 265 264 262 262 262 261 265 273 274 274 274 275 272 274 275 276 277 277 274 258 257 259 260 260 261 260 258 258 259 257 255 255 255 256 256 255 255 256 254 255
260 263 263 263 262 261 262 261 260 259 259 260 267 272 274 275 275 276 277 273 260 260 254 255 256 256 257 258 258 257 257 256 255 256 255 254 252 251 250 252 253 252 253
260 260 261 261 261 261 261 259 258 256 255 254 254 263 263 271 274 275 276 259 256 254 252 252 254 256 257 257 257 256 256 255 255 253 250 251 251 248 251 252 252 253 254
259 261 260 260 259 258 259 258 257 256 256 253 253 255 254 255 255 254 253 252 252 254 255 256 257 256 256 256 256 255 254 253 253 253 253 252 252 250 252 251 250 251 252
259 258 259 258 258 258 258 258 258 255 255 254 256 256 264 255 255 255 254 255 256 257 259 258 259 258 257 256 255 253 253 256 255 255 254 254 251 250 251 252 251 251 252
258 257 256 257 257 257 257 257 256 255 256 256 256 254 268 260 256 257 258 259 260 260 260 259 259 259 259 258 257 256 256 256 257 255 255 254 252 251 250 249 250 251 251
257 256 256 254 256 255 255 254 254 254 255 254 255 255 252 255 256 257 259 260 258 259 258 257 258 259 259 258 258 258 258 258 259 257 255 254 252 252 251 251 250 249 249
257 256 256 255 253 253 253 253 254 253 253 254 253 254 255 256 257 258 259 260 259 260 259 258 259 259 260 260 259 258 258 259 258 256 255 254 254 254 254 252 251 251 252
255 255 255 256 254 254 253 253 253 253 253 255 256 256 257 257 258 259 259 260 260 260 261 260 260 260 258 259 259 258 257 261 260 256 253 252 253 254 255 254 254 251 252
255 254 254 252 252 252 252 254 255 255 256 257 257 258 258 258 259 259 260 260 260 261 261 262 262 261 262 261 260 260 260 262 259 258 255 254 254 255 255 255 255 254 253
Wind_Speed
8 7 8 9 9 10 9 10 8 8 9 11 10 10 10 9 9 9 11 8 12 10 9 11 9 8 5 5 5 4 5 3 2 3 4 5 5 5 6 5 5 5 5
7 8 9 9 9 11 10 10 10 10 10 9 8 10 8 9 11 9 10 9 11 10 9 9 9 7 8 7 5 6 5 5 3 3 2 3 4 5 4 5 6 6 5
7 7 8 9 9 10 9 9 10 9 11 10 11 10 9 10 10 10 9 12 11 11 8 10 8 7 8 5 5 5 4 5 4 3 2 3 3 4 3 3 5 5 5
7 8 8 8 8 8 9 10 10 9 10 11 10 9 9 9 10 9 10 10 10 10 10 9 8 8 7 6 6 5 4 4 4 3 2 2 3 2 2 6 6 6 6
7 7 7 7 8 8 9 9 9 10 9 8 8 8 8 9 6 8 9 9 9 10 9 8 9 8 14 11 5 5 5 4 4 4 3 2 2 2 5 4 4 7 5
6 6 5 7 7 8 8 8 9 9 9 9 9 8 9 7 15 15 10 8 8 8 8 8 8 8 9 13 13 14 10 5 6 2 2 3 3 3 4 4 4 5 5
6 5 6 6 7 7 7 8 8 8 8 8 8 8 8 8 15 14 13 7 8 7 7 6 7 6 6 6 9 11 11 12 10 4 4 4 3 4 4 5 6 4 5
5 5 5 5 6 6 7 7 7 6 7 6 7 7 7 8 13 14 13 8 7 7 7 6 6 5 7 6 5 5 5 5 5 5 3 3 2 3 3 4 4 5 7
5 5 4 5 5 5 6 6 5 6 6 6 6 7 6 6 11 10 8 6 7 6 6 5 5 5 8 8 5 5 3 3 5 8 7 7 8 7 6 2 3 3 4
5 4 4 5 5 5 5 5 3 4 5 5 7 5 6 5 9 9 7 4 5 4 3 5 6 4 7 8 4 3 3 2 3 4 4 5 5 5 6 5 3 1 1
4 4 5 4 5 5 4 3 3 4 4 4 5 4 5 6 6 8 7 4 3 3 2 2 2 6 6 6 7 3 3 4 4 2 2 2 3 3 2 3 5 3 2
5 4 4 3 3 3 4 2 4 4 4 3 4 3 3 4 5 5 6 6 5 3 2 1 2 5 6 7 6 8 8 5 2 2 2 2 2 1 2 3 5 4 4
5 5 4 3 3 2 2 3 3 3 3 3 3 2 1 2 3 5 5 4 3 1 1 3 4 6 6 5 7 7 5 2 2 2 2 1 2 2 4 4 3 5 7
4 4 4 4 3 2 2 2 2 2 2 2 3 2 2 0 0 1 1 2 3 3 4 3 4 3 5 3 3 4 2 1 1 2 2 2 3 3 2 2 3 3 3
5 4 2 2 2 1 1 2 1 1 3 2 2 3 3 1 2 5 4 1 2 5 2 3 2 2 2 2 2 2 2 2 1 1 2 3 3 3 2 1 2 2 2
4 4 3 3 1 1 1 1 2 4 5 6 7 5 2 4 6 7 7 7 7 4 3 1 2 2 2 2 2 2 2 2 2 2 2 2 3 3 5 3 2 2 4
4 4 3 3 3 3 1 2 2 4 6 9 9 8 9 7 8 9 9 8 9 2 2 3 3 2 2 2 2 2 3 3 1 2 2 3 3 3 3 4 4 3 5
3 5 4 4 4 3 3 3 3 3 3 3 4 6 10 9 9 10 10 3 2 2 1 2 2 2 3 3 3 3 3 2 3 4 4 4 4 3 2 4 4 4 4
5 4 4 4 4 4 4 3 3 3 3 2 3 4 4 8 9 10 11 3 3 2 2 3 4 4 4 4 5 4 5 5 4 4 4 4 4 3 4 5 5 6 5
5 7 5 4 3 4 3 4 3 3 3 3 3 4 2 1 1 2 1 1 2 3 3 5 5 5 5 5 5 5 5 4 5 5 6 5 4 4 5 5 4 4 4
5 4 6 4 4 4 4 5 4 4 4 4 5 4 9 4 4 4 4 4 5 5 6 6 6 6 5 5 5 5 6 7 6 6 6 6 4 4 5 5 4 4 5
5 5 4 5 4 4 5 4 4 4 5 5 4 3 12 2 3 4 5 6 6 7 6 6 6 6 6 6 6 6 7 8 7 6 7 6 5 5 4 4 4 4 5
5 5 5 3 4 5 4 4 4 4 4 4 4 4 3 4 4 5 6 6 5 6 6 6 7 8 6 7 7 8 8 9 8 6 7 6 5 5 5 5 4 3 3
6 6 6 4 3 3 4 4 4 5 5 5 5 5 5 5 6 8 8 7 6 7 6 6 8 10 9 7 7 7 8 9 6 7 9 6 7 6 6 5 5 6 5
5 5 6 6 5 5 4 5 5 5 5 6 7 6 7 7 7 8 8 7 8 8 9 8 7 10 11 13 13 10 10 15 11 9 6 7 9 9 7 6 5 4 5
5 5 4 3 4 4 5 5 6 6 7 7 7 7 7 8 8 8 8 7 8 8 9 7 9 12 13 11 12 13 14 15 12 12 8 7 7 7 7 8 8 6 7
Wind_Direction
32 35 49 51 48 59 57 66 51 51 72 66 52 56 52 57 61 71 71 78 76 67 64 64 61 54 52 44 42 43 45 20 66 72 59 41 43 27 13 3 5 16 346
30 42 50 53 58 60 63 55 66 59 58 60 65 70 54 61 63 58 67 69 68 71 64 66 58 60 52 38 39 39 36 24 63 103 73 36 65 9 7 4 1 4 335
35 47 53 53 59 62 67 62 65 66 62 59 61 61 56 62 68 68 72 69 65 62 64 62 52 55 53 43 45 42 33 39 33 61 71 23 44 30 340 340 343 344 338
48 52 56 55 62 67 67 65 65 66 69 63 57 65 63 61 63 70 73 77 78 69 64 62 61 66 69 58 51 44 45 56 49 63 67 48 23 8 359 348 343 342 331
69 63 58 60 64 67 67 68 67 65 64 65 68 61 61 68 69 72 76 78 80 76 67 63 51 48 66 69 67 46 43 53 52 55 52 48 29 7 7 334 323 326 317
58 57 53 55 61 61 64 66 67 63 61 63 59 65 69 72 81 85 84 85 83 83 78 67 59 47 50 62 60 61 62 51 55 48 44 30 10 354 344 345 344 356 335
70 55 56 60 67 61 64 68 66 64 65 62 56 67 71 71 80 82 81 76 80 78 75 75 70 56 47 47 59 65 51 55 65 55 47 27 345 351 340 350 356 334 289
83 75 65 69 73 66 67 66 61 59 58 59 52 48 66 75 80 83 84 80 79 75 72 73 71 57 66 51 40 49 49 49 53 43 30 349 353 331 29 36 335 313 292
102 94 84 79 78 79 80 77 71 72 69 71 60 54 56 64 79 84 87 84 85 81 78 61 54 35 38 54 50 30 19 28 27 27 22 11 5 1 27 45 344 18 314
130 123 106 104 101 89 84 78 72 89 92 92 85 57 48 41 76 77 76 86 95 91 75 57 43 19 24 44 71 18 348 340 35 7 4 2 6 360 21 24 347 341 301
106 103 92 86 98 106 103 95 95 83 83 77 89 71 60 40 37 68 68 64 86 84 76 49 16 3 16 360 59 329 298 87 11 14 347 341 352 352 336 353 334 306 213
113 91 80 80 89 98 117 108 102 110 107 88 81 54 34 38 49 61 72 94 82 113 102 14 298 348 347 358 1 333 2 17 37 22 2 326 309 305 303 315 300 278 262
131 126 117 97 89 119 138 117 93 106 115 136 123 109 42 38 25 56 54 48 52 98 264 283 340 343 354 9 349 346 29 33 18 2 310 280 276 316 316 319 305 292 278
137 144 138 133 123 108 101 101 119 153 137 145 146 169 217 179 171 292 306 357 327 320 319 348 310 351 1 22 15 2 336 23 319 276 284 298 322 339 321 289 296 321 325
147 148 129 118 150 125 94 153 177 211 177 154 202 183 173 223 241 216 244 238 252 255 81 31 18 351 324 324 333 327 315 341 335 297 313 302 289 290 276 278 272 319 246
155 165 163 126 144 149 159 18 272 209 213 213 208 187 234 223 233 251 267 272 282 285 63 145 240 237 244 245 264 279 273 258 251 243 271 268 287 301 300 298 265 241 266
172 165 148 152 146 166 155 158 189 312 257 221 228 232 229 215 235 247 264 270 285 305 138 218 230 239 272 280 269 226 246 241 257 263 262 261 268 272 280 289 290 265 287
142 155 162 175 170 171 180 195 174 188 211 260 295 261 247 244 250 250 258 304 342 4 168 225 255 237 241 246 253 243 257 261 245 242 241 237 242 234 274 265 261 255 267
180 193 182 178 178 179 179 186 189 180 205 238 333 296 322 273 268 263 255 154 213 242 234 245 228 239 242 235 243 242 237 246 237 241 244 232 232 205 249 245 258 261 263
195 193 182 175 167 176 179 183 187 203 209 219 230 233 287 39 326 285 287 173 244 250 245 249 253 241 246 244 250 248 257 249 250 239 249 236 230 215 242 244 233 252 259
179 183 175 159 177 185 178 196 200 193 212 223 235 209 223 198 230 227 231 230 233 243 250 241 247 244 233 236 237 238 238 255 239 244 244 244 217 240 227 237 236 245 261
175 177 174 189 175 189 202 198 198 204 216 230 249 254 262 266 226 235 237 243 238 234 235 237 246 237 231 228 230 234 243 251 250 236 242 243 229 234 225 235 240 243 248
168 178 188 192 196 189 195 202 208 216 230 234 242 253 232 249 255 256 258 253 234 241 231 222 244 257 238 231 224 225 232 242 243 221 227 233 233 235 217 236 230 233 227
181 186 192 196 173 193 200 214 220 222 228 238 237 241 243 239 241 247 250 252 249 252 238 227 234 244 257 248 231 224 229 242 237 230 219 222 239 230 225 226 223 229 245
180 185 195 201 198 205 205 220 224 223 226 233 245 238 243 239 246 247 246 240 242 244 250 237 237 245 243 247 249 241 235 245 239 219 203 215 232 235 234 234 234 225 237
188 196 202 171 202 202 213 225 232 227 230 234 235 238 239 241 243 247 249 244 247 251 255 255 249 243 249 251 251 249 244 246 241 233 211 216 228 236 230 233 236 238 244